Home   Weather   Klaksvík   Past weeks

Flag for Faroe Islands Past Weather in Klaksvík, Faroe Islands, Faroe Islands — Yesterday and Last 2 Weeks

Now
37 °F

Overcast.


Feels Like: 27 °F
Forecast: 35 / 46 °F
Wind: 16 mph from East

Location: Thorshavn

Current Time: Apr 25, 2017 at 11:38:25 am

Latest Report: Apr 25, 2017 at 10:00 am


Visibility: 19 mi

Pressure: 30.29 "Hg

Humidity: 64%

Dew Point: 26 °F

Location of KlaksvíkLocation

Past Weather in Klaksvík — Graph

°F

Klaksvík Temperature Yesterday

Maximum temperature yesterday: 43 °F (at 6:00 pm)
Minimum temperature yesterday: 28 °F (at 6:00 am)
Average temperature yesterday: 35 °F

High & Low Weather Summary for the Past Weeks

 TemperatureHumidityPressure
High48 °F (Apr 19, 10:00 pm)99% (Apr 23, 1:00 pm)30.45 "Hg (Apr 23, 1:00 pm)
Low28 °F (Apr 24, 6:00 am)48% (Apr 17, 1:00 pm)29.41 "Hg (Apr 12, 1:00 am)
Average40 °F75%30.01 "Hg
* Reported Apr 10 10:00 am — Apr 25 10:00 am, Klaksvík, Weather by CustomWeather, © 2017

Note: Actual official high and low records may vary slightly from our data, if they occured in-between our weather recording intervals... More about our weather records

Advertising

Klaksvík Weather History for the Previous 24 Hours

Scroll right to see more
 ConditionsComfort  
Time TempWeatherWind HumidityBarometerVisibility
10:00 am
Tue, Apr 25
37 °FOvercast.16 mph64%30.29 "Hg19 mi
9:00 am36 °FRain showers. Overcast.18 mph66%30.28 "Hg22 mi
8:00 am36 °FOvercast.22 mph57%30.26 "Hg31 mi
7:00 am36 °FRain showers. Overcast.23 mph63%30.27 "Hg15 mi
6:00 am34 °FRain showers. Passing clouds.20 mph75%30.25 "Hg22 mi
5:00 am34 °FRain showers. Passing clouds.18 mph75%30.24 "Hg12 mi
4:00 am36 °FRain showers. Passing clouds.23 mph69%30.23 "Hg28 mi
3:00 am35 °FSnow flurries. Passing clouds.21 mph78%30.22 "Hg10 mi
2:00 am37 °FOvercast.24 mph59%30.22 "Hg25 mi
1:00 am38 °FPassing clouds.22 mph56%30.22 "Hg31 mi
12:00 am38 °FPassing clouds.23 mph60%30.21 "Hg17 mi
11:00 pm
Mon, Apr 24
38 °FRain showers. Passing clouds.23 mph63%30.20 "Hg12 mi
10:00 pm38 °FPassing clouds.21 mph68%30.18 "Hg22 mi
9:00 pm39 °FOvercast.23 mph63%30.16 "Hg19 mi
8:00 pm40 °FRain showers. Partly sunny.22 mph68%30.13 "Hg14 mi
7:00 pm38 °FRain showers. Overcast.16 mph84%30.11 "Hg25 mi
6:00 pm43 °FOvercast.17 mph66%30.08 "Hg19 mi
5:00 pm41 °FPassing clouds.20 mph65%30.08 "Hg22 mi
4:00 pm41 °FSunny.22 mph61%30.06 "Hg19 mi
3:00 pm41 °FPassing clouds.21 mph57%30.02 "Hg28 mi
1:00 pm39 °FPartly sunny.30 mph63%29.95 "Hg19 mi
12:00 pm38 °FRain showers. Overcast.32 mph80%29.89 "Hg4 mi
11:00 am37 °FSnow flurries. Low clouds.26 mph88%29.86 "Hg6 mi
Weather by CustomWeather, © 2017

See weather overviewHow to use our weather pages